User: anonymous   Login
Location: Newark
(34.9500°N, 139.9667°E)
Time: 05:03:48
(UTC+00:00)
Language:

Transit 2A Rocket - Orbit

View from above orbital plane
View from above orbital plane
View from above satellite
View from above satellite

Ground track
Ground track

The orbit data is extracted from the following two-line orbital elements,

1    47U 60007C   19339.39980924 -.00000020  00000-0  20620-4 0  9990
2    47  66.6660 316.5426 0220293  85.8567 276.7680 14.42061392107003
Epoch (UTC): 05 December 2019 09:35:43
Eccentricity: 0.0220293
inclination: 66.6660°
perigee height: 594 km
apogee height: 909 km
right ascension of ascending node: 316.5426°
argument of perigee: 85.8567°
revolutions per day: 14.42061392
mean anomaly at epoch: 276.7680°
orbit number at epoch: 10700

The dashed part of the orbit path shows where the satellite is in the earth's shadow,  

DLR